NOAA 19 (33591 NORAD) Tracking and Keplerian Element Data

This shows tracking and keplerian element data for the satellite.

Feedback or suggestion? Click here.




ElementValue
Catalog33591
NameNOAA 19
Epoch Orbit52089
Epoch Day77.52222703
Epoch Year2019
RAAN66.4416
Inclination99.1747
Eccentricity0.0012972
Argument of Perigee277.8157
Mean Anonmoly82.1541
Mean Motion14.12339517
Decay Rate4.9E-07
L11 33591U 09005A 19077.52222703 .00000049 00000-0 51872-4 0 9992
L22 33591 99.1747 66.4416 0012972 277.8157 82.1541 14.12339517520896

Live tracking and technical data element details for NOAA 19 (NORAD 33591). NOAA 19 can be tracked NOW for your location showing map with azimuth and elevation plus other details from your city location.

Track the satellite on the map from your city or location and see movement details for azimuth, elevation, latitude, longitude, range, height, and movement on the map or in text.







IsCatalogInMostPopularTable: catalog: 33591, numindb: 454
Update: records affected: 1



GetName: 33591 NOAA 19

Hit Count: updated at: Wed, 20 Mar 2019 05:06:10 GMT